Regional Weather Roundup
Issued by NWS Upton, NY

Home | Current Version | Previous Version | Text Only | Print | Product List | Glossary On
Versions: 1 2 3 4 5 6 7 8 9 10 11 12 13 14 15 16 17 18 19 20 21 22 23 24 25 26 27 28 29 30 31 32 33 34 35 36 37 38 39 40 41 42 43 44 45 46 47 48 49 50
000
ASUS41 KOKX 300608
RWROKX

REGIONAL WEATHER ROUNDUP
NATIONAL WEATHER SERVICE NEW YORK NY
200 AM EDT SUN APR 30 2017

NOTE: "FAIR" INDICATES FEW OR NO CLOUDS BELOW 12,000 FEET WITH NO
SIGNIFICANT WEATHER AND/OR OBSTRUCTIONS TO VISIBILITY.

NYZ071-072-176-178-NJZ106-104-300700-
NEW YORK CITY METRO AREA

CITY           SKY/WX    TMP DP  RH WIND       PRES   REMARKS
Central Park   CLOUDY    66  48  52 VRB3      30.15S
Wall St Helipt PTCLDY    66  48  52 CALM      30.13S
Bronx Bot Gard   N/A     64  46  52 N2        30.14S
LaGuardia APRT CLOUDY    68  47  46 NW10      30.11S
Kennedy INTL   PTCLDY    68  51  54 NW12      30.12S
Breezy Point     N/A     66 N/A N/A NW8         N/A
Newark/Liberty MOCLDY    67  52  58 N12       30.12S
Teterboro      CLOUDY    65  48  54 NW6       30.12S
$$

NYZ177-179-078>081-300700-
LONG ISLAND NEW YORK

CITY           SKY/WX    TMP DP  RH WIND       PRES   REMARKS
Jones Beach      N/A     66 N/A N/A N8          N/A
Matinecock PT    N/A     61 N/A N/A W6          N/A
Farmingdale    CLOUDY    67  51  56 NW8       30.12S
MacArthur/ISP  MOCLDY    65  56  72 N7        30.11S
Shirley        NOT AVBL
Mt Sinai Harb    N/A     59 N/A N/A CALM        N/A
Westhampton    PTCLDY    56  50  80 W5        30.13S
East Hampton     N/A     64  49  57 NW7       30.10S
Montauk          N/A     59  48  67 NW8       30.12
$$

NYZ052-065-067-300700-
HUDSON VALLEY

CITY           SKY/WX    TMP DP  RH WIND       PRES   REMARKS
White Plains   PTCLDY    61  50  67 NW5       30.12R
Larchmont Harb   N/A     64 N/A N/A NW5         N/A
Croton O-T Hud   N/A     63 N/A N/A N2          N/A
Newburgh       CLEAR     57  48  72 NW7       30.17R
Montgomery     CLEAR     59  44  57 VRB3      30.14F
Poughkeepsie   CLEAR     57  42  57 N9        30.16R
Albany         CLEAR     50  33  52 W13       30.21S
$$

NJZ001-105-106-008-010-013-015-019>022-104-300700-
NEW JERSEY

CITY           SKY/WX    TMP DP  RH WIND       PRES   REMARKS
Newark/Liberty MOCLDY    67  52  58 N12       30.12S
Teterboro      CLOUDY    65  48  54 NW6       30.12S
Caldwell       CLOUDY    65  43  44 VRB5      30.14S
Somerville     CLEAR     64  53  67 NW3       30.12R
Linden           N/A     66  51  58 N7        30.13S
Perth Amboy      N/A     66 N/A N/A N3          N/A
Sussex         PTCLDY    60  45  57 NW5       30.17S
Andover          N/A     60  47  61 N7        30.16S
Trenton        MOCLDY    67  56  67 N6        30.13R
Millville      MOCLDY    72  65  78 NE9       30.09R
Atlantic City  CLEAR     71  60  68 NE8       30.10R
Wrightstown    PTCLDY    66  59  79 N6        30.10R
Toms River     PTCLDY    62  59  90 CALM      30.13R
Belmar         CLEAR     67  56  67 N8        30.14R
$$

PAZ047>061-062-071-300700-
EASTERN PENNSYLVANIA

CITY           SKY/WX    TMP DP  RH WIND       PRES   REMARKS
Philadelphia   PTCLDY    71  58  63 N9        30.12R
Allentown      CLEAR     60  54  80 CALM      30.14S
Scranton       CLEAR     57  41  55 N9        30.18F
$$

CTZ002-004>006-009-010-012-RIZ004-006-007-MAZ004-011-015-300700-
SOUTHERN NEW ENGLAND
 IN CT

CITY           SKY/WX    TMP DP  RH WIND       PRES   REMARKS
Bradley INTL   CLEAR     57  35  43 N12       30.16R
Hartford       CLEAR     60  36  40 N12       30.16R
Danbury        CLEAR     59  47  64 N7        30.15R
Wtrbury/Oxford CLEAR     57  37  47 N16       30.14F
Bridgeport     CLEAR     65  50  58 MISG      30.13R
Meriden        CLEAR     63  39  41 N12G23    30.13R
New Haven      CLEAR     63  46  54 N9        30.12R
Chester          N/A     63  43  48 N17       30.13R
Groton         CLEAR     64  43  46 NW14      30.11R
Wilimantic     CLEAR     62  38  40 NW10      30.15R

 IN RI

CITY           SKY/WX    TMP DP  RH WIND       PRES   REMARKS
Providence     CLEAR     63  38  39 NW9       30.10R
Block Island   CLEAR     61  45  55 NW10      30.11R
Westerly       CLEAR     65  43  44 NW7G17    30.12R
 IN MA

CITY           SKY/WX    TMP DP  RH WIND       PRES   REMARKS
Boston         CLEAR     62  41  46 NW14G23   30.10R
Worcester      CLEAR     54  36  50 NW16      30.14R
Westfield      CLEAR     55  36  48 NW13      30.16R
Provincetown   CLEAR     55  45  68 NW12      30.07R
Nantucket      CLOUDY    64  45  49 NW12G23   30.06R
$$

ANZ330-335-338-340-345-350-353-355-300700-
COASTAL MARINE OBSERVATIONS


STATION/POSITION TIME  SKY/WX   TEMP    WIND        PRES    VSBY  WAVE
                                AIR SEA DIR/SP/G                  HT/PER
                 (UTC)          (F)     (DEG/KT/KT) (MB)    (MI)  (FT/S)
NY HARB ENTRANCE 0450            57 51   10/  8/  8 1019.7          3/ 7
20 S FIRE ISLAND 0550            57 50  330/  6/  8 1019.3          4/ 7
GREAT SOUTH BAY  0530            66 62  330/  6/  6   N/A
23 SSW MONTAUK P 0450            56 48              1019.7          4/ 7
15 E BARNEGAT LI 0530               55                N/A           4/ 7
HUDSON CANYON    0450            54 50  250/  6/  8 1019.7          4/ 7
KINGS POINT      0548            60 54   20/  5/  7 1019.9
EXECUTION ROCKS  NOT AVBL
CENTRAL LI SOUND 0545            57     300/  6/  8   N/A           1
EASTERN LI SOUND NOT AVBL
ROBBINS REEF     0548            67     350/ 13/ 17 1020.2
$$


>>>>>>>>>>>>>>>>>>>>>>>>>>>> KEY <<<<<<<<<<<<<<<<<<<<<<<<<<<
>                                                          <
>     SKY/WX - Sky Condition/Present Weather               <
>     TMP    - Temperature in Fahrenheit                   <
>     DP     - Dew Point in Fahrenheit                     <
>     RH     - Relative Humidity in Percent                <
>     WIND   - Direction (from) and Speed in MPH           <
>     PRES   - Mean Sea Level Pressure (inches of Hg)      <
>     WCI    - Wind Chill Index                            <
>     VSB    - VISIBILITY IN MILES                         <
>     HX     - HEAT INDEX                                  <
>     TC     - TEMPERATURE IN CELSIUS                      <
>     VRB    - VARIABLE WIND DIRECTION                     <
>                                                          <
>>>>>>>>>>>>>>>>>>>>>>>>>>>> KEY <<<<<<<<<<<<<<<<<<<<<<<<<<<



USA.gov is the U.S. government's official web portal to all federal, state and local government web resources and services.